CEB546 RKSI-RPVM

Flight info

Callsign CEB546
Flight time N/A
Altitude 34000
Route BOPTA2Y BOPTA Z51 BEDES Y711 KIDOS Z81 CJU Y572 RUGMA Y579 RUSAR Y27 SAKON/N0461F350 DCT GURAG/N0463F340 G578 TAC DCT LARYO LARYO3P
Aircraft A21N/M-SDE2E3FGHIRWXY/LB1

Departure

Time N/A
Airport Incheon International Airport (RKSI)

Arrival

Time 2026-05-01 10:09
Airport Mactan Cebu International Airport (RPVM)
Time Latitude Longitude Altitude Speed Heading
2026-05-01 08:34 19.66217 127.11362 34010 ft 448 kts 192°
2026-05-01 08:35 19.63172 127.10679 34010 ft 448 kts 192°
2026-05-01 08:35 19.57076 127.09310 34010 ft 448 kts 192°
2026-05-01 08:36 19.50958 127.07938 34010 ft 448 kts 192°
2026-05-01 08:36 19.44823 127.06564 34010 ft 448 kts 192°
2026-05-01 08:37 19.38719 127.05196 34010 ft 448 kts 192°
2026-05-01 08:37 19.32647 127.03838 34010 ft 448 kts 192°
2026-05-01 08:38 19.26545 127.02473 34010 ft 448 kts 192°
2026-05-01 08:38 19.20436 127.01109 34010 ft 448 kts 192°
2026-05-01 08:39 19.14323 126.99744 34010 ft 448 kts 192°
2026-05-01 08:39 19.08189 126.98376 34010 ft 448 kts 192°
2026-05-01 08:40 18.99044 126.96338 34010 ft 448 kts 192°
2026-05-01 08:40 18.92936 126.94978 34010 ft 448 kts 192°
2026-05-01 08:41 18.86827 126.93619 34010 ft 448 kts 192°
2026-05-01 08:41 18.80725 126.92262 34010 ft 448 kts 192°
2026-05-01 08:42 18.74586 126.90898 34010 ft 448 kts 192°
2026-05-01 08:42 18.68478 126.89542 34010 ft 448 kts 192°
2026-05-01 08:43 18.62364 126.88186 34010 ft 448 kts 192°
2026-05-01 08:43 18.56299 126.86842 34010 ft 448 kts 192°
2026-05-01 08:44 18.50178 126.85486 34010 ft 448 kts 192°
2026-05-01 08:44 18.44039 126.84127 34010 ft 448 kts 192°
2026-05-01 08:45 18.37960 126.82783 34010 ft 448 kts 192°
2026-05-01 08:45 18.31840 126.81430 34010 ft 448 kts 192°
2026-05-01 08:46 18.25750 126.80085 34010 ft 448 kts 192°
2026-05-01 08:46 18.19612 126.78730 34010 ft 448 kts 192°
2026-05-01 08:47 18.13530 126.77389 34010 ft 448 kts 192°
2026-05-01 08:47 18.07416 126.76041 34010 ft 448 kts 192°
2026-05-01 08:48 18.01306 126.74695 34010 ft 448 kts 192°
2026-05-01 08:48 17.95181 126.73347 34010 ft 448 kts 192°
2026-05-01 08:49 17.89084 126.72006 34010 ft 448 kts 192°
2026-05-01 08:49 17.82945 126.70657 34010 ft 448 kts 192°
2026-05-01 08:50 17.76871 126.69323 34010 ft 448 kts 192°
2026-05-01 08:50 17.70743 126.67978 34010 ft 448 kts 192°
2026-05-01 08:51 17.64618 126.66634 34010 ft 448 kts 192°
2026-05-01 08:51 17.58536 126.65301 34010 ft 448 kts 192°
2026-05-01 08:52 17.52405 126.63959 34010 ft 448 kts 192°
2026-05-01 08:52 17.46282 126.62618 34010 ft 448 kts 192°
2026-05-01 08:53 17.40205 126.61289 34010 ft 448 kts 192°
2026-05-01 08:53 17.34090 126.59952 34010 ft 448 kts 192°
2026-05-01 08:54 17.27973 126.58614 34010 ft 448 kts 192°
2026-05-01 08:54 17.21869 126.57282 34010 ft 448 kts 192°
2026-05-01 08:55 17.15761 126.55947 34010 ft 448 kts 192°
2026-05-01 08:55 17.09633 126.54617 34010 ft 448 kts 192°
2026-05-01 08:56 17.03524 126.53313 34010 ft 448 kts 192°
2026-05-01 08:56 16.97401 126.52007 34010 ft 448 kts 192°
2026-05-01 08:57 16.91284 126.50701 34010 ft 448 kts 192°
2026-05-01 08:57 16.85182 126.49398 34010 ft 448 kts 192°
2026-05-01 08:58 16.79063 126.48092 34010 ft 448 kts 192°
2026-05-01 08:58 16.72942 126.46786 34010 ft 448 kts 192°
2026-05-01 08:59 16.66811 126.45479 34010 ft 448 kts 192°
2026-05-01 08:59 16.60699 126.44177 34010 ft 448 kts 192°
2026-05-01 09:00 16.54569 126.42871 34010 ft 448 kts 192°
2026-05-01 09:00 16.48484 126.41576 34010 ft 448 kts 192°
2026-05-01 09:01 16.42337 126.40269 34010 ft 448 kts 192°
2026-05-01 09:01 16.36233 126.38972 34010 ft 448 kts 192°
2026-05-01 09:02 16.30090 126.37668 34010 ft 448 kts 192°
2026-05-01 09:02 16.23980 126.36371 34011 ft 448 kts 192°
2026-05-01 09:03 16.17877 126.35076 34011 ft 448 kts 192°
2026-05-01 09:03 16.11752 126.33778 34011 ft 448 kts 191°
2026-05-01 09:04 16.05654 126.32486 34011 ft 448 kts 191°
2026-05-01 09:04 15.99519 126.31187 34010 ft 448 kts 191°
2026-05-01 09:05 15.93405 126.29894 34010 ft 448 kts 191°
2026-05-01 09:05 15.87266 126.28596 34010 ft 448 kts 191°
2026-05-01 09:06 15.81164 126.27306 34010 ft 448 kts 191°
2026-05-01 09:06 15.75033 126.26011 34010 ft 448 kts 191°
2026-05-01 09:07 15.68953 126.24728 34010 ft 448 kts 191°
2026-05-01 09:07 15.62822 126.23434 34010 ft 448 kts 191°
2026-05-01 09:08 15.56689 126.22141 34010 ft 448 kts 191°
2026-05-01 09:08 15.50568 126.20852 34010 ft 448 kts 191°
2026-05-01 09:09 15.44471 126.19569 34010 ft 448 kts 191°
2026-05-01 09:09 15.38331 126.18276 34011 ft 448 kts 191°
2026-05-01 09:10 15.32242 126.16996 34011 ft 448 kts 191°
2026-05-01 09:10 15.26099 126.15704 34011 ft 448 kts 191°
2026-05-01 09:11 15.19978 126.14419 34011 ft 448 kts 191°
2026-05-01 09:11 15.13884 126.13139 34011 ft 448 kts 191°
2026-05-01 09:12 15.07763 126.11855 34011 ft 448 kts 191°
2026-05-01 09:12 15.01634 126.10570 34011 ft 448 kts 191°
2026-05-01 09:13 14.95516 126.09287 34010 ft 448 kts 191°
2026-05-01 09:13 14.89403 126.08007 34010 ft 448 kts 191°
2026-05-01 09:14 14.83256 126.06720 34011 ft 448 kts 192°
2026-05-01 09:14 14.77156 126.05444 34011 ft 448 kts 192°
2026-05-01 09:15 14.71028 126.04161 34011 ft 448 kts 192°
2026-05-01 09:15 14.64897 126.02879 34011 ft 448 kts 192°
2026-05-01 09:16 14.58764 126.01596 34011 ft 448 kts 192°
2026-05-01 09:17 14.49625 125.99490 34011 ft 448 kts 196°
2026-05-01 09:17 14.40662 125.96799 34011 ft 448 kts 196°
2026-05-01 09:18 14.31650 125.94083 34011 ft 448 kts 196°
2026-05-01 09:19 14.22667 125.91380 34011 ft 448 kts 196°
2026-05-01 09:20 14.13677 125.88679 34011 ft 448 kts 196°
2026-05-01 09:21 14.01700 125.85083 34011 ft 448 kts 196°
2026-05-01 09:21 13.92698 125.82383 34011 ft 448 kts 196°
2026-05-01 09:22 13.80718 125.78793 34011 ft 448 kts 196°
2026-05-01 09:23 13.71709 125.76096 34011 ft 448 kts 196°
2026-05-01 09:24 13.62720 125.73407 34011 ft 448 kts 196°
2026-05-01 09:25 13.50744 125.69827 34011 ft 448 kts 196°
2026-05-01 09:26 13.41754 125.67142 34011 ft 448 kts 196°
2026-05-01 09:26 13.32735 125.64449 34011 ft 448 kts 196°
2026-05-01 09:27 13.23772 125.61774 34011 ft 448 kts 196°
2026-05-01 09:28 13.17739 125.59985 34011 ft 448 kts 196°
2026-05-01 09:28 13.11745 125.58210 34011 ft 448 kts 196°
2026-05-01 09:29 13.02770 125.55550 34010 ft 448 kts 196°
2026-05-01 09:30 12.93755 125.52878 34010 ft 448 kts 196°
2026-05-01 09:30 12.84761 125.50214 34009 ft 448 kts 196°
2026-05-01 09:31 12.78768 125.48440 34009 ft 448 kts 196°
2026-05-01 09:32 12.69752 125.45773 34009 ft 448 kts 196°
2026-05-01 09:32 12.60762 125.43115 34008 ft 448 kts 196°
2026-05-01 09:33 12.54757 125.41339 34008 ft 448 kts 196°
2026-05-01 09:34 12.45748 125.38677 34008 ft 448 kts 196°
2026-05-01 09:34 12.36760 125.36023 34008 ft 448 kts 196°
2026-05-01 09:35 12.27752 125.33370 34008 ft 448 kts 196°
2026-05-01 09:36 12.21764 125.31604 34008 ft 448 kts 196°
2026-05-01 09:36 12.15774 125.29838 34008 ft 448 kts 196°
2026-05-01 09:37 12.09745 125.28059 34008 ft 448 kts 196°
2026-05-01 09:37 12.00768 125.25414 34008 ft 448 kts 196°
2026-05-01 09:38 11.91742 125.22755 34009 ft 448 kts 196°
2026-05-01 09:39 11.82762 125.20110 34009 ft 448 kts 196°
2026-05-01 09:39 11.76766 125.18345 34009 ft 448 kts 196°
2026-05-01 09:40 11.67703 125.15678 34009 ft 452 kts 196°
2026-05-01 09:41 11.61653 125.13900 34009 ft 453 kts 196°
2026-05-01 09:41 11.52547 125.11231 34010 ft 453 kts 196°
2026-05-01 09:42 11.46471 125.09448 34010 ft 453 kts 196°
2026-05-01 09:43 11.34355 125.05890 34010 ft 453 kts 196°
2026-05-01 09:43 11.28309 125.04115 34010 ft 453 kts 197°
2026-05-01 09:44 11.23140 125.00613 33999 ft 453 kts 235°
2026-05-01 09:44 11.21855 124.97953 34006 ft 453 kts 254°
2026-05-01 09:45 11.20520 124.91665 34015 ft 453 kts 258°
2026-05-01 09:45 11.18486 124.82326 34011 ft 453 kts 257°
2026-05-01 09:46 11.17056 124.76052 34011 ft 453 kts 257°
2026-05-01 09:46 11.15624 124.69834 34011 ft 453 kts 257°
2026-05-01 09:47 11.14193 124.63636 34011 ft 453 kts 257°
2026-05-01 09:47 11.12744 124.57368 34011 ft 453 kts 257°
2026-05-01 09:48 11.11303 124.51142 34011 ft 453 kts 257°
2026-05-01 09:48 11.09877 124.44979 33696 ft 445 kts 257°
2026-05-01 09:49 11.09172 124.41932 32608 ft 447 kts 257°
2026-05-01 09:49 11.08451 124.38821 30927 ft 459 kts 257°
2026-05-01 09:49 11.07727 124.35699 29137 ft 468 kts 257°
2026-05-01 09:49 11.06972 124.32446 27343 ft 474 kts 257°
2026-05-01 09:50 11.06222 124.29207 25545 ft 476 kts 257°
2026-05-01 09:50 11.05454 124.25982 23647 ft 479 kts 254°
2026-05-01 09:50 11.04091 124.22960 21860 ft 475 kts 235°
2026-05-01 09:50 11.01825 124.20627 20724 ft 457 kts 218°
2026-05-01 09:51 10.99298 124.18751 19602 ft 443 kts 216°
2026-05-01 09:51 10.96833 124.16939 18227 ft 436 kts 216°
2026-05-01 09:51 10.94429 124.15142 16878 ft 428 kts 217°
2026-05-01 09:51 10.92076 124.13354 15568 ft 420 kts 217°
2026-05-01 09:52 10.89766 124.11580 14260 ft 413 kts 217°
2026-05-01 09:52 10.87502 124.09828 12966 ft 405 kts 217°
2026-05-01 09:52 10.85292 124.08114 11776 ft 395 kts 217°
2026-05-01 09:52 10.83162 124.06458 10893 ft 379 kts 218°
2026-05-01 09:53 10.81128 124.04875 10302 ft 358 kts 218°
2026-05-01 09:53 10.79217 124.03388 10017 ft 331 kts 218°
2026-05-01 09:53 10.77468 124.02027 9992 ft 301 kts 218°
2026-05-01 09:53 10.75841 124.00761 9997 ft 290 kts 218°
2026-05-01 09:54 10.74245 123.99519 10001 ft 289 kts 218°
2026-05-01 09:54 10.72639 123.98269 10003 ft 289 kts 218°
2026-05-01 09:54 10.71032 123.97020 10004 ft 289 kts 218°
2026-05-01 09:54 10.69442 123.95784 10004 ft 289 kts 218°
2026-05-01 09:55 10.67832 123.94534 10004 ft 289 kts 218°
2026-05-01 09:55 10.66244 123.93295 10004 ft 289 kts 218°
2026-05-01 09:55 10.64680 123.91996 10004 ft 289 kts 221°
2026-05-01 09:55 10.63185 123.90612 10004 ft 289 kts 224°
2026-05-01 09:56 10.61736 123.89193 10004 ft 289 kts 224°
2026-05-01 09:56 10.60288 123.87768 10004 ft 289 kts 224°
2026-05-01 09:56 10.58861 123.86361 10004 ft 289 kts 224°
2026-05-01 09:56 10.57401 123.84925 10004 ft 289 kts 224°
2026-05-01 09:57 10.55958 123.83507 10004 ft 289 kts 224°
2026-05-01 09:57 10.54524 123.82097 10004 ft 289 kts 224°
2026-05-01 09:57 10.53074 123.80671 10004 ft 289 kts 224°
2026-05-01 09:57 10.51626 123.79247 9948 ft 289 kts 224°
2026-05-01 09:58 10.50185 123.77830 9839 ft 288 kts 224°
2026-05-01 09:58 10.48739 123.76408 9738 ft 287 kts 224°
2026-05-01 09:58 10.47290 123.74982 9644 ft 287 kts 224°
2026-05-01 09:58 10.45862 123.73577 9561 ft 287 kts 224°
2026-05-01 09:59 10.44422 123.72161 9437 ft 286 kts 224°
2026-05-01 09:59 10.42998 123.70760 9249 ft 285 kts 224°
2026-05-01 09:59 10.41579 123.69366 8994 ft 284 kts 224°
2026-05-01 09:59 10.40149 123.67960 8683 ft 283 kts 224°
2026-05-01 10:00 10.38735 123.66572 8356 ft 281 kts 224°
2026-05-01 10:00 10.37331 123.65194 8018 ft 276 kts 224°
2026-05-01 10:00 10.35767 123.64098 7628 ft 271 kts 198°
2026-05-01 10:00 10.33929 123.63943 7293 ft 269 kts 169°
2026-05-01 10:01 10.32221 123.64689 6944 ft 267 kts 141°
2026-05-01 10:01 10.30889 123.66007 6626 ft 266 kts 134°
2026-05-01 10:01 10.29615 123.67355 6300 ft 264 kts 134°
2026-05-01 10:01 10.28334 123.68690 5977 ft 263 kts 134°
2026-05-01 10:02 10.27058 123.70003 5657 ft 261 kts 135°
2026-05-01 10:02 10.25773 123.71317 5335 ft 259 kts 135°
2026-05-01 10:02 10.24501 123.72611 5017 ft 258 kts 135°
2026-05-01 10:02 10.23240 123.73893 4702 ft 256 kts 135°
2026-05-01 10:03 10.21981 123.75172 4385 ft 255 kts 135°
2026-05-01 10:03 10.19469 123.77724 3916 ft 252 kts 135°
2026-05-01 10:03 10.18231 123.78982 3590 ft 252 kts 135°
2026-05-01 10:03 10.17004 123.80228 3293 ft 248 kts 134°
2026-05-01 10:04 10.15996 123.81649 3163 ft 248 kts 107°
2026-05-01 10:04 10.15968 123.83350 3066 ft 240 kts 70°
2026-05-01 10:04 10.16927 123.84701 3018 ft 237 kts 41°
2026-05-01 10:04 10.18201 123.85761 3012 ft 235 kts 39°
2026-05-01 10:05 10.19426 123.86782 3091 ft 215 kts 40°
2026-05-01 10:05 10.20495 123.87737 3017 ft 193 kts 42°
2026-05-01 10:05 10.21434 123.88622 2928 ft 174 kts 43°
2026-05-01 10:05 10.22289 123.89445 2620 ft 167 kts 44°
2026-05-01 10:06 10.23114 123.90263 2242 ft 161 kts 45°
2026-05-01 10:06 10.23863 123.91018 2127 ft 145 kts 45°
2026-05-01 10:06 10.24568 123.91730 1905 ft 141 kts 45°
2026-05-01 10:06 10.25269 123.92437 1462 ft 142 kts 45°
2026-05-01 10:07 10.25977 123.93150 1186 ft 143 kts 45°
2026-05-01 10:07 10.26686 123.93864 1006 ft 144 kts 45°
2026-05-01 10:07 10.27402 123.94582 810 ft 143 kts 45°
2026-05-01 10:07 10.28117 123.95298 605 ft 143 kts 44°
2026-05-01 10:08 10.29541 123.96706 95 ft 142 kts 46°
2026-05-01 10:08 10.30201 123.97394 24 ft 123 kts 45°
2026-05-01 10:08 10.30720 123.97904 29 ft 80 kts 45°
2026-05-01 10:09 10.31027 123.98207 31 ft 46 kts 43°
2026-05-01 10:09 10.31258 123.98338 30 ft 31 kts 19°
2026-05-01 10:09 10.31395 123.98315 32 ft 19 kts 316°
2026-05-01 10:09 10.31485 123.98228 36 ft 16 kts 315°
2026-05-01 10:10 10.31556 123.98147 39 ft 14 kts 296°
2026-05-01 10:10 10.31536 123.98077 40 ft 10 kts 229°
2026-05-01 10:10 10.31435 123.97977 40 ft 11 kts 223°
2026-05-01 10:11 10.31375 123.97919 40 ft 10 kts 232°
2026-05-01 10:11 10.31383 123.97867 41 ft 7 kts 310°
2026-05-01 10:11 10.31412 123.97835 41 ft 5 kts 317°
2026-05-01 10:11 10.31413 123.97834 41 ft 0 kts 316°